Time,TemperatureF,DewpointF,PressureIn,WindDirection,WindDirectionDegrees,WindSpeedMPH,WindSpeedGustMPH,Humidity,HourlyPrecipIn,Conditions,Clouds,dailyrainin,SoftwareType,DateUTC
2013-02-08 00:01:00,29.0,29.0,30.13,NNW,344,1.0,1.0,107,-99.99,,,-99.99,,2013-02-08 08:01:00,
2013-02-08 00:11:00,28.0,28.0,30.13,SSE,151,3.0,3.0,107,-99.99,,,-99.99,,2013-02-08 08:11:00,
2013-02-08 00:21:00,28.0,28.0,30.13,South,188,1.0,1.0,107,-99.99,,,-99.99,,2013-02-08 08:21:00,
2013-02-08 00:32:00,28.0,28.0,30.13,South,173,3.0,4.0,106,-99.99,,,-99.99,,2013-02-08 08:32:00,
2013-02-08 00:41:00,28.0,28.0,30.13,SSE,163,2.0,4.0,107,-99.99,,,-99.99,,2013-02-08 08:41:00,
2013-02-08 00:52:00,27.0,27.0,30.14,South,172,1.0,1.0,108,-99.99,,,-99.99,,2013-02-08 08:52:00,
2013-02-08 01:02:00,27.0,27.0,30.14,South,172,1.0,1.0,108,-99.99,,,-99.99,,2013-02-08 09:02:00,
2013-02-08 01:11:00,27.0,27.0,30.14,WSW,240,2.0,2.0,108,-99.99,,,-99.99,,2013-02-08 09:11:00,
2013-02-08 01:21:00,27.0,27.0,30.14,SW,220,2.0,2.0,108,-99.99,,,-99.99,,2013-02-08 09:21:00,
2013-02-08 01:31:00,27.0,27.0,30.15,WSW,250,0.0,1.0,108,-99.99,,,-99.99,,2013-02-08 09:31:00,
2013-02-08 01:42:00,27.0,27.0,30.15,SE,129,1.0,1.0,108,-99.99,,,-99.99,,2013-02-08 09:42:00,
2013-02-08 01:51:00,27.0,27.0,30.15,ESE,120,1.0,1.0,108,-99.99,,,-99.99,,2013-02-08 09:51:00,
2013-02-08 02:01:00,27.0,27.0,30.16,SSW,193,1.0,1.0,108,-99.99,,,-99.99,,2013-02-08 10:01:00,
2013-02-08 02:11:00,26.0,26.0,30.16,SSW,212,1.0,1.0,108,-99.99,,,-99.99,,2013-02-08 10:11:00,
2013-02-08 02:22:00,26.0,26.0,30.16,SSW,197,1.0,1.0,108,-99.99,,,-99.99,,2013-02-08 10:22:00,
2013-02-08 02:31:00,25.0,25.0,30.16,South,171,1.0,2.0,107,-99.99,,,-99.99,,2013-02-08 10:31:00,
2013-02-08 02:41:00,26.0,26.0,30.16,WSW,253,1.0,2.0,108,-99.99,,,-99.99,,2013-02-08 10:41:00,
2013-02-08 02:51:00,26.0,26.0,30.17,SE,134,0.0,1.0,108,-99.99,,,-99.99,,2013-02-08 10:51:00,
2013-02-08 03:01:00,26.0,26.0,30.17,South,170,1.0,2.0,108,-99.99,,,-99.99,,2013-02-08 11:01:00,
2013-02-08 03:11:00,25.0,25.0,30.17,SSE,155,1.0,1.0,108,-99.99,,,-99.99,,2013-02-08 11:11:00,
2013-02-08 03:21:00,25.0,25.0,30.17,South,177,1.0,2.0,108,-99.99,,,-99.99,,2013-02-08 11:21:00,
2013-02-08 03:32:00,25.0,25.0,30.17,South,176,1.0,2.0,108,-99.99,,,-99.99,,2013-02-08 11:32:00,
2013-02-08 03:41:00,25.0,25.0,30.17,West,268,2.0,2.0,109,-99.99,,,-99.99,,2013-02-08 11:41:00,
2013-02-08 03:52:00,26.0,26.0,30.17,South,169,2.0,3.0,109,-99.99,,,-99.99,,2013-02-08 11:52:00,
2013-02-08 04:01:00,27.0,27.0,30.17,SSE,167,1.0,3.0,109,-99.99,,,-99.99,,2013-02-08 12:01:00,
2013-02-08 04:11:00,27.0,27.0,30.17,South,191,2.0,2.0,108,-99.99,,,-99.99,,2013-02-08 12:11:00,
2013-02-08 04:22:00,27.0,27.0,30.17,SSW,194,2.0,3.0,109,-99.99,,,-99.99,,2013-02-08 12:22:00,
2013-02-08 04:32:00,27.0,27.0,30.18,SSW,195,1.0,1.0,108,-99.99,,,-99.99,,2013-02-08 12:32:00,
2013-02-08 04:42:00,26.0,26.0,30.18,SSE,147,1.0,1.0,107,-99.99,,,-99.99,,2013-02-08 12:42:00,
2013-02-08 04:52:00,26.0,26.0,30.18,WSW,240,2.0,2.0,107,-99.99,,,-99.99,,2013-02-08 12:52:00,
2013-02-08 05:01:00,26.0,26.0,30.18,West,263,2.0,2.0,107,-99.99,,,-99.99,,2013-02-08 13:01:00,
2013-02-08 05:11:00,25.0,25.0,30.18,South,184,1.0,1.0,107,-99.99,,,-99.99,,2013-02-08 13:11:00,
2013-02-08 05:21:00,25.0,25.0,30.19,SE,135,2.0,2.0,107,-99.99,,,-99.99,,2013-02-08 13:21:00,
2013-02-08 05:32:00,25.0,25.0,30.19,West,259,1.0,1.0,108,-99.99,,,-99.99,,2013-02-08 13:32:00,
2013-02-08 05:42:00,25.0,25.0,30.19,West,259,1.0,1.0,108,-99.99,,,-99.99,,2013-02-08 13:42:00,
2013-02-08 05:51:00,26.0,26.0,30.20,SE,144,2.0,4.0,108,-99.99,,,-99.99,,2013-02-08 13:51:00,
2013-02-08 06:02:00,27.0,27.0,30.20,SE,141,3.0,5.0,108,-99.99,,,-99.99,,2013-02-08 14:02:00,
2013-02-08 06:11:00,27.0,27.0,30.20,SSE,160,2.0,4.0,108,-99.99,,,-99.99,,2013-02-08 14:11:00,
2013-02-08 06:21:00,28.0,28.0,30.20,South,187,3.0,4.0,108,-99.99,,,-99.99,,2013-02-08 14:21:00,
2013-02-08 06:32:00,28.0,28.0,30.20,WSW,238,2.0,3.0,108,-99.99,,,-99.99,,2013-02-08 14:32:00,
2013-02-08 06:42:00,28.0,28.0,30.20,SSW,211,1.0,2.0,108,-99.99,,,-99.99,,2013-02-08 14:42:00,
2013-02-08 06:52:00,28.0,28.0,30.20,SSE,157,1.0,2.0,106,-99.99,,,-99.99,,2013-02-08 14:52:00,
2013-02-08 07:01:00,27.0,27.0,30.20,ESE,105,1.0,1.0,107,-99.99,,,-99.99,,2013-02-08 15:01:00,
2013-02-08 07:11:00,27.0,27.0,30.20,SE,128,1.0,2.0,106,-99.99,,,-99.99,,2013-02-08 15:11:00,
2013-02-08 07:21:00,27.0,27.0,30.21,SE,135,2.0,2.0,107,-99.99,,,-99.99,,2013-02-08 15:21:00,
2013-02-08 07:32:00,26.0,26.0,30.21,NW,307,1.0,2.0,107,-99.99,,,-99.99,,2013-02-08 15:32:00,
2013-02-08 07:42:00,25.0,25.0,30.21,South,176,2.0,2.0,106,-99.99,,,-99.99,,2013-02-08 15:42:00,
2013-02-08 07:51:00,25.0,25.0,30.22,South,189,1.0,2.0,107,-99.99,,,-99.99,,2013-02-08 15:51:00,
2013-02-08 08:01:00,26.0,26.0,30.22,SE,131,2.0,4.0,107,-99.99,,,-99.99,,2013-02-08 16:01:00,
2013-02-08 08:11:00,26.0,26.0,30.22,SSE,158,2.0,3.0,108,-99.99,,,-99.99,,2013-02-08 16:11:00,
2013-02-08 08:21:00,27.0,27.0,30.22,SSW,195,3.0,4.0,107,-99.99,,,-99.99,,2013-02-08 16:21:00,
2013-02-08 08:32:00,27.0,27.0,30.22,SSW,198,2.0,4.0,107,-99.99,,,-99.99,,2013-02-08 16:32:00,
2013-02-08 08:42:00,27.0,27.0,30.23,SW,215,3.0,4.0,107,-99.99,,,-99.99,,2013-02-08 16:42:00,
2013-02-08 08:51:00,28.0,28.0,30.23,WSW,237,3.0,3.0,107,-99.99,,,-99.99,,2013-02-08 16:51:00,
2013-02-08 09:03:00,28.0,28.0,30.23,East,85,1.0,1.0,107,-99.99,,,-99.99,,2013-02-08 17:03:00,
2013-02-08 09:11:00,28.0,28.0,30.23,East,82,1.0,1.0,107,-99.99,,,-99.99,,2013-02-08 17:11:00,
2013-02-08 09:22:00,28.0,28.0,30.23,ENE,71,1.0,1.0,106,-99.99,,,-99.99,,2013-02-08 17:22:00,
2013-02-08 09:32:00,29.0,29.0,30.23,SE,130,1.0,1.0,107,-99.99,,,-99.99,,2013-02-08 17:32:00,
2013-02-08 09:42:00,30.0,30.0,30.23,ESE,112,3.0,3.0,106,-99.99,,,-99.99,,2013-02-08 17:42:00,
2013-02-08 09:52:00,31.0,31.0,30.23,SE,135,4.0,4.0,100,-99.99,,,-99.99,,2013-02-08 17:52:00,
2013-02-08 10:01:00,31.0,31.0,30.23,SE,144,3.0,4.0,100,-99.99,,,-99.99,,2013-02-08 18:01:00,
2013-02-08 10:12:00,32.0,32.0,30.23,SE,133,3.0,4.0,100,-99.99,,,-99.99,,2013-02-08 18:12:00,
2013-02-08 10:23:00,33.0,33.0,30.23,SSE,156,1.0,3.0,100,-99.99,,,-99.99,,2013-02-08 18:23:00,
2013-02-08 10:33:00,34.0,34.0,30.23,NE,39,1.0,1.0,100,-99.99,,,-99.99,,2013-02-08 18:33:00,
2013-02-08 10:43:00,34.0,34.0,30.23,NW,317,0.0,1.0,97,-99.99,,,-99.99,,2013-02-08 18:43:00,
2013-02-08 10:52:00,36.0,35.0,30.23,ESE,102,0.0,2.0,99,-99.99,,,-99.99,,2013-02-08 18:52:00,
2013-02-08 11:01:00,36.0,36.0,30.23,ESE,104,2.0,3.0,99,-99.99,,,-99.99,,2013-02-08 19:01:00,
2013-02-08 11:11:00,38.0,35.0,30.23,ESE,119,2.0,3.0,90,-99.99,,,-99.99,,2013-02-08 19:11:00,
2013-02-08 11:22:00,39.0,35.0,30.23,SE,141,1.0,5.0,85,-99.99,,,-99.99,,2013-02-08 19:22:00,
2013-02-08 11:32:00,40.0,34.0,30.23,ESE,106,3.0,5.0,78,-99.99,,,-99.99,,2013-02-08 19:32:00,
2013-02-08 11:41:00,41.0,34.0,30.23,ESE,119,2.0,4.0,76,-99.99,,,-99.99,,2013-02-08 19:41:00,
2013-02-08 11:52:00,40.0,34.0,30.23,WSW,239,1.0,3.0,79,-99.99,,,-99.99,,2013-02-08 19:52:00,
2013-02-08 12:01:00,40.0,34.0,30.23,WSW,239,1.0,3.0,79,-99.99,,,-99.99,,2013-02-08 20:01:00,
2013-02-08 12:11:00,42.0,32.0,30.22,WNW,288,8.0,12.0,67,-99.99,,,-99.99,,2013-02-08 20:11:00,
2013-02-08 12:21:00,42.0,31.0,30.21,WNW,284,9.0,16.0,66,-99.99,,,-99.99,,2013-02-08 20:21:00,
2013-02-08 12:31:00,42.0,32.0,30.21,West,281,7.0,13.0,66,-99.99,,,-99.99,,2013-02-08 20:31:00,
2013-02-08 12:41:00,43.0,32.0,30.20,WNW,289,6.0,14.0,64,-99.99,,,-99.99,,2013-02-08 20:41:00,
2013-02-08 12:52:00,44.0,32.0,30.20,West,281,5.0,11.0,61,-99.99,,,-99.99,,2013-02-08 20:52:00,
2013-02-08 13:01:00,46.0,32.0,30.20,WNW,303,1.0,3.0,57,-99.99,,,-99.99,,2013-02-08 21:01:00,
2013-02-08 13:11:00,48.0,31.0,30.19,SE,127,1.0,3.0,51,-99.99,,,-99.99,,2013-02-08 21:11:00,
2013-02-08 13:21:00,47.0,31.0,30.19,WNW,297,0.0,2.0,51,-99.99,,,-99.99,,2013-02-08 21:21:00,
2013-02-08 13:32:00,48.0,30.0,30.18,WSW,238,1.0,3.0,49,-99.99,,,-99.99,,2013-02-08 21:32:00,
2013-02-08 13:42:00,48.0,30.0,30.18,West,268,7.0,12.0,49,-99.99,,,-99.99,,2013-02-08 21:42:00,
2013-02-08 13:52:00,48.0,30.0,30.18,West,276,8.0,15.0,50,-99.99,,,-99.99,,2013-02-08 21:52:00,
2013-02-08 14:01:00,48.0,30.0,30.18,West,276,8.0,15.0,50,-99.99,,,-99.99,,2013-02-08 22:01:00,
2013-02-08 14:11:00,47.0,30.0,30.17,West,278,8.0,13.0,50,-99.99,,,-99.99,,2013-02-08 22:11:00,
2013-02-08 14:21:00,47.0,31.0,30.17,West,276,8.0,14.0,52,-99.99,,,-99.99,,2013-02-08 22:21:00,
2013-02-08 14:31:00,47.0,31.0,30.17,West,278,6.0,10.0,53,-99.99,,,-99.99,,2013-02-08 22:31:00,
2013-02-08 14:42:00,47.0,31.0,30.17,West,273,8.0,15.0,54,-99.99,,,-99.99,,2013-02-08 22:42:00,
2013-02-08 14:51:00,46.0,30.0,30.17,West,266,8.0,14.0,53,-99.99,,,-99.99,,2013-02-08 22:51:00,
2013-02-08 15:01:00,46.0,31.0,30.17,West,278,8.0,13.0,56,-99.99,,,-99.99,,2013-02-08 23:01:00,
2013-02-08 15:11:00,45.0,32.0,30.17,West,279,8.0,16.0,59,-99.99,,,-99.99,,2013-02-08 23:11:00,
2013-02-08 15:21:00,45.0,32.0,30.17,WNW,282,11.0,16.0,60,-99.99,,,-99.99,,2013-02-08 23:21:00,
2013-02-08 15:31:00,45.0,32.0,30.17,West,280,9.0,15.0,61,-99.99,,,-99.99,,2013-02-08 23:31:00,
2013-02-08 15:41:00,44.0,32.0,30.17,WNW,284,11.0,18.0,61,-99.99,,,-99.99,,2013-02-08 23:41:00,
2013-02-08 15:52:00,45.0,32.0,30.17,West,278,11.0,18.0,61,-99.99,,,-99.99,,2013-02-08 23:52:00,
2013-02-08 16:01:00,44.0,31.0,30.17,WNW,284,8.0,15.0,60,-99.99,,,-99.99,,2013-02-09 00:01:00,
2013-02-08 16:11:00,44.0,32.0,30.17,West,279,11.0,20.0,62,-99.99,,,-99.99,,2013-02-09 00:11:00,
2013-02-08 16:21:00,43.0,32.0,30.17,West,281,12.0,21.0,63,-99.99,,,-99.99,,2013-02-09 00:21:00,
2013-02-08 16:32:00,42.0,32.0,30.17,West,273,11.0,20.0,65,-99.99,,,-99.99,,2013-02-09 00:32:00,
2013-02-08 16:42:00,42.0,32.0,30.17,West,273,11.0,20.0,65,-99.99,,,-99.99,,2013-02-09 00:42:00,
2013-02-08 16:52:00,42.0,32.0,30.17,West,267,13.0,21.0,67,-99.99,,,-99.99,,2013-02-09 00:52:00,
2013-02-08 17:01:00,42.0,32.0,30.17,West,274,12.0,23.0,68,-99.99,,,-99.99,,2013-02-09 01:01:00,
2013-02-08 17:11:00,42.0,32.0,30.17,West,265,10.0,19.0,67,-99.99,,,-99.99,,2013-02-09 01:11:00,
2013-02-08 17:21:00,41.0,32.0,30.17,West,264,8.0,16.0,68,-99.99,,,-99.99,,2013-02-09 01:21:00,
2013-02-08 17:31:00,41.0,32.0,30.17,WSW,258,8.0,11.0,69,-99.99,,,-99.99,,2013-02-09 01:31:00,
2013-02-08 17:41:00,41.0,32.0,30.18,WSW,247,5.0,12.0,69,-99.99,,,-99.99,,2013-02-09 01:41:00,
2013-02-08 17:52:00,41.0,32.0,30.18,WSW,253,5.0,15.0,69,-99.99,,,-99.99,,2013-02-09 01:52:00,
2013-02-08 18:01:00,40.0,32.0,30.18,WSW,255,7.0,12.0,70,-99.99,,,-99.99,,2013-02-09 02:01:00,
2013-02-08 18:11:00,40.0,32.0,30.19,SW,235,2.0,5.0,72,-99.99,,,-99.99,,2013-02-09 02:11:00,
2013-02-08 18:21:00,40.0,32.0,30.19,WSW,252,5.0,9.0,73,-99.99,,,-99.99,,2013-02-09 02:21:00,
2013-02-08 18:32:00,40.0,32.0,30.19,WSW,245,5.0,8.0,73,-99.99,,,-99.99,,2013-02-09 02:32:00,
2013-02-08 18:41:00,40.0,32.0,30.19,WSW,245,7.0,11.0,73,-99.99,,,-99.99,,2013-02-09 02:41:00,
2013-02-08 18:52:00,40.0,32.0,30.19,WSW,253,8.0,12.0,73,-99.99,,,-99.99,,2013-02-09 02:52:00,
2013-02-08 19:01:00,40.0,32.0,30.19,West,270,9.0,16.0,73,-99.99,,,-99.99,,2013-02-09 03:01:00,
2013-02-08 19:11:00,40.0,32.0,30.19,WNW,285,10.0,15.0,72,-99.99,,,-99.99,,2013-02-09 03:11:00,
2013-02-08 19:21:00,40.0,32.0,30.19,West,263,7.0,11.0,73,-99.99,,,-99.99,,2013-02-09 03:21:00,
2013-02-08 19:32:00,39.0,32.0,30.19,West,268,7.0,11.0,75,-99.99,,,-99.99,,2013-02-09 03:32:00,
2013-02-08 19:41:00,40.0,33.0,30.20,West,269,7.0,13.0,75,-99.99,,,-99.99,,2013-02-09 03:41:00,
2013-02-08 19:52:00,39.0,32.0,30.20,WNW,284,9.0,14.0,75,-99.99,,,-99.99,,2013-02-09 03:52:00,
2013-02-08 20:02:00,39.0,32.0,30.20,WSW,251,8.0,13.0,76,-99.99,,,-99.99,,2013-02-09 04:02:00,
2013-02-08 20:11:00,39.0,33.0,30.20,WSW,248,7.0,11.0,77,-99.99,,,-99.99,,2013-02-09 04:11:00,
2013-02-08 20:22:00,39.0,33.0,30.21,WSW,250,8.0,12.0,77,-99.99,,,-99.99,,2013-02-09 04:22:00,
2013-02-08 20:32:00,39.0,33.0,30.21,WSW,250,7.0,13.0,78,-99.99,,,-99.99,,2013-02-09 04:32:00,
2013-02-08 20:42:00,39.0,33.0,30.21,SW,233,6.0,11.0,78,-99.99,,,-99.99,,2013-02-09 04:42:00,
2013-02-08 20:52:00,39.0,33.0,30.21,SW,230,6.0,12.0,78,-99.99,,,-99.99,,2013-02-09 04:52:00,
2013-02-08 21:02:00,39.0,33.0,30.21,WSW,250,8.0,15.0,78,-99.99,,,-99.99,,2013-02-09 05:02:00,
2013-02-08 21:12:00,39.0,33.0,30.21,WSW,241,8.0,12.0,78,-99.99,,,-99.99,,2013-02-09 05:12:00,
2013-02-08 21:22:00,39.0,33.0,30.22,WSW,257,10.0,19.0,78,-99.99,,,-99.99,,2013-02-09 05:22:00,
2013-02-08 21:31:00,39.0,33.0,30.22,West,263,9.0,14.0,78,-99.99,,,-99.99,,2013-02-09 05:31:00,
2013-02-08 21:41:00,39.0,33.0,30.22,West,265,9.0,13.0,78,-99.99,,,-99.99,,2013-02-09 05:41:00,
2013-02-08 21:52:00,39.0,33.0,30.22,West,265,8.0,14.0,76,-99.99,,,-99.99,,2013-02-09 05:52:00,
2013-02-08 22:01:00,39.0,33.0,30.22,West,270,7.0,12.0,77,-99.99,,,-99.99,,2013-02-09 06:01:00,
2013-02-08 22:11:00,39.0,33.0,30.22,West,273,7.0,11.0,78,-99.99,,,-99.99,,2013-02-09 06:11:00,
2013-02-08 22:21:00,39.0,33.0,30.22,West,274,7.0,12.0,78,-99.99,,,-99.99,,2013-02-09 06:21:00,
2013-02-08 22:31:00,38.0,32.0,30.22,WNW,283,9.0,16.0,76,-99.99,,,-99.99,,2013-02-09 06:31:00,
2013-02-08 22:41:00,38.0,32.0,30.22,WSW,245,3.0,7.0,77,-99.99,,,-99.99,,2013-02-09 06:41:00,
2013-02-08 22:51:00,35.0,31.0,30.22,WSW,241,3.0,4.0,84,-99.99,,,-99.99,,2013-02-09 06:51:00,
2013-02-08 23:01:00,35.0,31.0,30.22,SSW,213,2.0,4.0,84,-99.99,,,-99.99,,2013-02-09 07:01:00,
2013-02-08 23:11:00,34.0,31.0,30.22,West,274,4.0,9.0,88,-99.99,,,-99.99,,2013-02-09 07:11:00,
2013-02-08 23:21:00,38.0,32.0,30.22,West,275,8.0,15.0,78,-99.99,,,-99.99,,2013-02-09 07:21:00,
2013-02-08 23:31:00,38.0,32.0,30.22,West,271,7.0,12.0,78,-99.99,,,-99.99,,2013-02-09 07:31:00,
2013-02-08 23:42:00,38.0,32.0,30.22,West,278,8.0,12.0,76,-99.99,,,-99.99,,2013-02-09 07:42:00,
2013-02-08 23:51:00,38.0,31.0,30.22,WNW,282,5.0,9.0,76,-99.99,,,-99.99,,2013-02-09 07:51:00,